Home   Weather   Santa Clara   Past weeks

Flag for Cuba Past Weather in Santa Clara, Cuba — Yesterday and Last 2 Weeks

Now
79 °F

Passing clouds.


Feels Like: 81 °F
Forecast: 67 / 82 °F
Wind: 13 mph from East

Location: Cienfuegos - Las Villas

Current Time: Jan 17, 2017 at 10:25:38 am

Latest Report: Jan 17, 2017 at 9:50 am


Visibility: 6 mi

Pressure: 30.18 "Hg

Humidity: 65%

Dew Point: 66 °F

Location of Santa ClaraLocation

Past Weather in Santa Clara — Graph

°F

Santa Clara Temperature Yesterday

Maximum temperature yesterday: 88 °F (at 2:58 pm)
Minimum temperature yesterday: 66 °F (at 3:58 am)
Average temperature yesterday: 75 °F

High & Low Weather Summary for the Past Weeks

 TemperatureHumidityPressure
High88 °F (Jan 2, 10:50 am)100% (Jan 3, 5:58 am)30.39 "Hg (Jan 3, 5:58 am)
Low55 °F (Jan 10, 3:58 am)37% (Jan 13, 1:50 pm)29.89 "Hg (Jan 4, 3:51 pm)
Average73 °F75%30.14 "Hg
* Reported Jan 2 8:50 am — Jan 17 8:50 am, Santa Clara, Weather by CustomWeather, © 2017

Note: Actual official high and low records may vary slightly from our data, if they occured in-between our weather recording intervals... More about our weather records

Advertising

Santa Clara Weather History for the Previous 24 Hours

Scroll right to see more
 ConditionsComfort  
Time TempWeatherWind HumidityBarometerVisibility
8:50 am
Tue, Jan 17
75 °FClear.12 mph78%30.15 "Hg6 mi
7:58 am72 °FMild.12 mph88%30.15 "HgN/A
6:58 am70 °FMild.12 mph88%30.15 "HgN/A
5:58 am68 °FMild.9 mph94%30.12 "HgN/A
4:58 am68 °FMild.8 mph94%30.12 "HgN/A
3:58 am68 °FMild.7 mph94%30.12 "HgN/A
2:58 am70 °FMild.9 mph88%30.12 "HgN/A
1:58 am70 °FMild.9 mph88%30.12 "HgN/A
12:58 am70 °FMild.9 mph88%30.12 "HgN/A
11:58 pm
Mon, Jan 16
72 °FMild.13 mph88%30.12 "HgN/A
10:58 pm73 °FMild.13 mph83%30.15 "HgN/A
9:58 pm73 °FMild.14 mph83%30.15 "HgN/A
8:58 pm73 °FMild.9 mph83%30.12 "HgN/A
7:58 pm75 °FMild.12 mph78%30.12 "HgN/A
6:58 pm77 °FWarm.14 mph74%30.09 "HgN/A
5:58 pm79 °FWarm.12 mph65%30.09 "HgN/A
3:58 pm84 °FWarm.5 mph51%30.07 "HgN/A
2:58 pm88 °FWarm.12 mph46%30.07 "HgN/A
1:50 pm86 °FScattered clouds.13 mph49%30.09 "Hg6 mi
12:50 pm84 °FScattered clouds.12 mph51%30.12 "Hg6 mi
11:58 am82 °FWarm.12 mph55%30.15 "HgN/A
10:51 am81 °FScattered clouds.17 mph58%30.18 "Hg6 mi
Weather by CustomWeather, © 2017

See weather overviewHow to use our weather pages